Regional Weather Roundup
Issued by NWS

Home | Current Version | Previous Version | Graphics & Text | Print | Product List | Glossary Off
Versions: 1 2 3 4 5 6 7 8 9 10 11 12 13 14 15 16 17 18 19 20 21 22 23 24 25 26 27 28 29 30 31 32 33 34 35 36 37 38 39 40 41 42 43 44 45 46 47 48 49 50

000
ASUS43 KTOP 031959
RWRKS

WEATHER ROUNDUP FOR KANSAS
NATIONAL WEATHER SERVICE GOODLAND KS
300 PM CDT SUN MAY 03 2015

NOTE:  "FAIR" INDICATES FEW OR NO CLOUDS BELOW 12,000 FEET WITH NO
SIGNIFICANT WEATHER AND/OR OBSTRUCTIONS TO VISIBILITY.

KSZ001>006-013>018-027>032-041>047-032100-
NORTHWEST KANSAS

CITY           SKY/WX    TMP DP  RH WIND       PRES   REMARKS
GOODLAND       MOSUNNY   84  37  18 NW8       29.87S
HAYS           MOSUNNY   88  45  22 SE6       29.79F
HILL CITY      PTSUNNY   86  47  25 S8        29.79F
RUSSELL        MOSUNNY   89  50  26 S14       29.77S
$$

KSZ061>065-074>080-084>089-032100-
SOUTHWEST KANSAS

CITY           SKY/WX    TMP DP  RH WIND       PRES   REMARKS
DODGE CITY     MOSUNNY   88  41  19 S8        29.82F
ELKHART          N/A     86  41  20 W5          N/A
GARDEN CITY    PTSUNNY   84  40  21 SW12      29.83F
GREAT BEND     MOSUNNY   84  55  37 S9G16     29.79S
LIBERAL        MOSUNNY   84  45  24 W5        29.86F
$$

KSZ066>073-081>083-090>101-032100-
SOUTHEAST KANSAS

CITY           SKY/WX    TMP DP  RH WIND       PRES   REMARKS
CHANUTE        LGT RAIN  80  57  45 S21G32    29.89F
COFFEYVILLE    PTSUNNY   80  59  48 S20G25    29.90F
HUTCHINSON     MOSUNNY   83  58  42 S20       29.82S
MEDICINE LODGE   N/A     84  57  39 S16G25    29.82S
NEWTON         MOSUNNY   79  55  44 S23G29    29.85F
PARSONS        PTSUNNY   80  60  50 S12G18    29.91F
WICHITA INTL   PTSUNNY   81  56  42 S20       29.83F
WICHITA JABRA  PTSUNNY   80  54  40 SW24G33   29.83F
WINFIELD       PTSUNNY   84  58  40 SW25G31   29.87F
$$

KSZ007>012-019>026-033>040-048>060-102>105-032100-
NORTHEAST KANSAS

CITY           SKY/WX    TMP DP  RH WIND       PRES   REMARKS
CONCORDIA      SUNNY     88  51  28 S10       29.76F
EMPORIA        SUNNY     85  58  39 S18G26    29.83F
LAWRENCE       PTSUNNY   82  57  42 S23G29    29.82F
MANHATTAN      MOSUNNY   85  58  39 S15G22    29.78S
OLATHE IND     PTSUNNY   79  57  46 S21G31    29.86S
OLATHE EXE     PTSUNNY   78  58  49 S23G33    29.85R
SALINA         SUNNY     86  57  37 S21       29.78F
TOPEKA BILLARD PTSUNNY   82  58  43 S14G23    29.81S
TOPEKA FORBES  PTSUNNY   81  56  42 S16G28    29.81F
$$



USA.gov is the U.S. government's official web portal to all federal, state and local government web resources and services.